FW2418 Weather Reports


time (UTC)temp
C
wind
direction
speed
KPH
gust
KPH
rain 1hr
cm
rain 24hr
cm
rain mn
cm
humidity
%
barometer
mb
20260902165045 30 7 4.8 12.9 0.08 0.10 0.10 83 1013.4
20260902164044 29 10 1.6 14.5 0.08 0.10 0.10 93 1013.0
20260902163043 28 343 1.6 11.3 0.08 0.10 0.10 94 1013.4
20260902161909 29 54 3.2 12.9 0.03 0.05 0.05 90 1013.7
20260902160908 28 8 3.2 14.5 0.00 0.03 0.03 87 1013.7
20260902155907 28 38 3.2 9.7 0.00 0.03 0.03 91 1013.7
20260902154906 27 17 3.2 9.7 0.03 0.03 0.03 93 1014.0
20260902153905 28 32 1.6 17.7 0.03 0.03 0.03 91 1014.0
20260902152904 29 16 6.4 17.7 0.03 0.03 0.03 87 1014.0
20260902151903 29 83 3.2 12.9 0.03 0.03 0.03 88 1014.0
20260902150903 28 23 4.8 11.3 0.03 0.03 0.03 89 1014.0
20260902145831 28 93 1.6 11.3 0.03 0.03 0.03 93 1014.0
20260902144830 28 23 3.2 9.7 0.00 0.00 0.00 90 1014.0
20260902143829 28 12 3.2 9.7 0.00 0.00 0.00 90 1014.0
20260902142828 28 28 3.2 11.3 0.00 0.00 0.00 91 1014.0
20260902141828 29 26 3.2 9.7 0.00 0.00 0.00 85 1014.0
20260902140827 29 67 3.2 9.7 0.00 0.00 0.00 84 1014.0
20260902135755 30 39 4.8 11.3 0.00 0.00 0.00 84 1013.7
20260902134754 29 54 3.2 8.0 0.00 0.00 0.00 86 1013.7
20260902133753 28 21 3.2 9.7 0.00 0.00 0.00 88 1013.7
20260902132752 28 20 4.8 9.7 0.00 0.00 0.00 90 1013.7
20260902131751 27 20 3.2 12.9 0.00 0.00 0.00 92 1014.0
20260902130750 27 23 6.4 12.9 0.00 0.00 0.00 91 1014.0
20260902125749 27 21 3.2 14.5 0.00 0.00 0.00 93 1014.0
20260902124748 27 54 3.2 6.4 0.00 0.00 0.00 95 1013.7
20260902123748 26 22 1.6 4.8 0.00 0.00 0.00 99 1013.7
20260902122747 26 6 1.6 3.2 0.00 0.00 0.00 99 1013.7
20260902121746 25 26 1.6 3.2 0.00 0.00 0.00 99 1013.7
20260902120745 25 6 1.6 1.6 0.00 0.00 0.00 99 1013.7
20260902115745 24 6 0.0 1.6 0.00 0.00 0.00 99 1013.7
20260902114712 24 5 0.0 0.0 0.00 0.00 0.00 99 1013.7
20260902113712 24 1 0.0 0.0 0.00 0.00 0.00 99 1013.7
20260902112710 24 1 0.0 0.0 0.00 0.00 0.00 99 1013.3
20260902111639 24 360 0.0 0.0 0.00 0.00 0.00 99 1013.3
20260902110606 24 1 0.0 0.0 0.00 0.00 0.00 99 1013.3
20260902105605 24 360 0.0 0.0 0.00 0.00 0.00 99 1013.3
20260902104605 24 1 0.0 0.0 0.00 0.00 0.00 99 1013.3
20260902103604 24 360 0.0 0.0 0.00 0.00 0.00 99 1013.0
20260902102603 23 1 0.0 0.0 0.00 0.00 0.00 99 1013.0
20260902101602 23 1 0.0 0.0 0.00 0.00 0.00 99 1013.0
20260902100601 23 1 0.0 0.0 0.00 0.00 0.00 99 1013.0
20260902095529 23 1 0.0 0.0 0.00 0.00 0.00 99 1013.0
20260902094529 23 1 0.0 0.0 0.00 0.00 0.00 99 1012.7
20260902093425 23 1 0.0 0.0 0.00 0.00 0.00 99 1012.7
20260902092425 23 1 0.0 1.6 0.00 0.00 0.00 99 1012.7
20260902091424 23 1 0.0 1.6 0.00 0.00 0.00 99 1012.3
20260902090423 23 15 0.0 1.6 0.00 0.00 0.00 99 1012.3
20260902085422 23 330 0.0 1.6 0.00 0.00 0.00 99 1012.3
20260902084421 24 323 0.0 1.6 0.00 0.00 0.00 99 1012.3
20260902083420 24 326 0.0 1.6 0.00 0.00 0.00 99 1012.3
20260902082419 23 334 1.6 1.6 0.00 0.00 0.00 99 1012.3
20260902081418 24 13 0.0 0.0 0.00 0.00 0.00 99 1012.7
20260902080346 24 13 0.0 0.0 0.00 0.00 0.00 98 1012.7
20260902075345 24 13 0.0 0.0 0.00 0.00 0.00 98 1012.7
20260902074344 24 13 0.0 0.0 0.00 0.00 0.00 98 1012.7
20260902073108 23 13 0.0 0.0 0.00 0.00 0.00 98 1012.7
20260902072005 24 13 0.0 0.0 0.00 0.00 0.00 98 1012.7
20260902071004 24 13 0.0 0.0 0.00 0.00 0.00 98 1012.7
20260902070004 24 13 0.0 0.0 0.00 0.00 0.00 98 1013.0
20260902065002 24 13 0.0 1.6 0.00 0.00 0.00 98 1013.0
20260902064001 24 13 0.0 1.6 0.00 0.00 0.00 98 1013.0
20260902063000 24 32 0.0 0.0 0.00 0.00 0.00 98 1013.0
20260902062000 24 32 0.0 0.0 0.00 0.00 0.00 98 1013.0
20260902060959 24 32 0.0 0.0 0.00 0.00 0.00 98 1013.0
20260902055927 25 32 0.0 0.0 0.00 0.00 0.00 98 1013.0
20260902054926 25 32 0.0 0.0 0.00 0.00 0.00 98 1013.0
20260902053925 25 32 0.0 0.0 0.00 0.00 0.00 97 1013.0
20260902052822 25 32 0.0 1.6 0.00 0.00 0.00 97 1013.0
20260902051821 25 33 0.0 1.6 0.00 0.00 0.00 97 1013.0
20260902050749 25 34 0.0 0.0 0.00 0.00 0.00 97 1013.0
20260902045717 25 34 0.0 0.0 0.00 0.00 0.00 97 1013.0
20260902044645 25 34 0.0 1.6 0.00 0.00 0.00 97 1013.0
20260902043644 25 34 0.0 1.6 0.00 0.00 0.00 96 1013.0
20260902042643 25 34 0.0 1.6 0.00 0.00 0.00 96 1013.4
20260902041642 25 16 0.0 0.0 0.00 0.00 0.00 96 1013.4
20260902040611 25 15 0.0 0.0 0.00 0.00 0.00 96 1013.4
20260902035610 25 16 0.0 0.0 0.00 0.00 0.00 96 1013.7
20260902034609 25 15 0.0 0.0 0.00 0.00 0.00 96 1013.7
20260902033608 25 16 0.0 0.0 0.00 0.00 0.00 95 1014.0
20260902032608 25 16 0.0 0.0 0.00 0.00 0.00 95 1014.0
20260902031607 25 16 0.0 1.6 0.00 0.00 0.00 95 1014.0
20260902030535 25 15 0.0 1.6 0.00 0.00 0.00 95 1014.0
20260902025534 25 16 0.0 1.6 0.00 0.00 0.00 95 1014.0
20260902024502 25 16 1.6 1.6 0.00 0.00 0.00 95 1014.0
20260902023501 25 16 0.0 0.0 0.00 0.00 0.00 94 1014.0
20260902022500 25 16 0.0 0.0 0.00 0.00 0.00 94 1014.0
20260902021459 25 16 0.0 0.0 0.00 0.00 0.00 94 1014.4
20260902020458 26 16 0.0 0.0 0.00 0.00 0.00 94 1014.4
20260902015458 26 15 0.0 0.0 0.00 0.00 0.00 93 1014.0
20260902014426 26 16 0.0 0.0 0.00 0.00 0.00 93 1014.0
20260902013425 26 16 0.0 0.0 0.00 0.00 0.00 93 1014.0
20260902012424 26 15 0.0 0.0 0.00 0.00 0.00 92 1014.0
20260902011423 26 16 0.0 0.0 0.00 0.00 0.00 92 1013.7
20260902010422 26 16 0.0 1.6 0.00 0.00 0.00 91 1013.7
20260902005421 26 15 0.0 1.6 0.00 0.00 0.00 91 1013.3
20260902004420 26 8 0.0 1.6 0.00 0.00 0.00 90 1013.3
20260902003419 27 5 0.0 1.6 0.00 0.00 0.00 89 1013.7
20260902002418 27 13 1.6 1.6 0.00 0.00 0.00 89 1013.7
20260902001417 27 34 1.6 3.2 0.00 0.00 0.00 88 1013.7
20260902000416 27 6 1.6 4.8 0.00 0.00 0.00 87 1013.7
20260901235415 27 358 1.6 4.8 0.00 0.00 0.00 87 1013.7
20260901234414 27 61 1.6 4.8 0.00 0.00 0.00 86 1013.7
20260901233413 27 8 3.2 6.4 0.00 0.00 0.00 85 1013.7
20260901232413 27 57 1.6 4.8 0.00 0.00 0.00 85 1013.7
20260901231412 28 357 1.6 6.4 0.00 0.00 0.00 85 1013.3
20260901230411 28 61 3.2 8.0 0.00 0.00 0.00 85 1013.3
20260901225339 28 47 3.2 8.0 0.00 0.00 0.00 84 1013.3
20260901224306 28 37 3.2 8.0 0.00 0.00 0.00 84 1013.3
20260901223305 28 43 3.2 8.0 0.00 0.00 0.00 83 1013.3
20260901222306 28 42 3.2 11.3 0.00 0.00 0.00 83 1013.0
20260901221304 29 47 3.2 12.9 0.00 0.00 0.00 81 1013.0
20260901220232 29 60 3.2 12.9 0.00 0.00 0.00 83 1012.7
20260901215231 29 34 3.2 12.9 0.00 0.00 0.00 83 1012.7
20260901214230 29 49 6.4 14.5 0.00 0.00 0.00 81 1012.7
20260901213229 29 52 3.2 11.3 0.00 0.00 0.00 80 1013.0
20260901212228 29 49 3.2 8.0 0.00 0.00 0.00 78 1012.7
20260901211228 30 66 3.2 9.7 0.00 0.00 0.00 77 1013.0
20260901210125 30 46 3.2 12.9 0.00 0.00 0.00 75 1012.7
20260901205052 30 77 3.2 14.5 0.00 0.00 0.00 75 1013.0
20260901204020 30 38 3.2 12.9 0.00 0.00 0.00 76 1013.0
20260901203020 30 33 4.8 9.7 0.00 0.00 0.00 77 1013.0
20260901202019 30 40 3.2 8.0 0.00 0.00 0.00 75 1013.0
20260901201018 30 60 3.2 8.0 0.00 0.00 0.00 75 1013.0
20260901195946 30 67 3.2 8.0 0.00 0.00 0.00 73 1013.0
20260901194945 30 45 1.6 8.0 0.00 0.00 0.00 73 1013.4
20260901193945 30 109 1.6 11.3 0.00 0.00 0.00 73 1013.4
20260901192944 30 84 3.2 11.3 0.00 0.00 0.00 73 1013.4
20260901191943 30 27 3.2 9.7 0.00 0.00 0.00 74 1013.7
20260901190911 30 57 3.2 11.3 0.00 0.00 0.00 73 1013.7
20260901185910 31 48 3.2 8.0 0.00 0.00 0.00 71 1013.7
20260901184838 31 28 3.2 9.7 0.00 0.00 0.00 70 1013.7
20260901183837 31 33 3.2 9.7 0.00 0.00 0.00 71 1013.7
20260901182837 31 117 1.6 9.7 0.00 0.00 0.00 73 1013.7
20260901181836 31 84 3.2 11.3 0.00 0.00 0.00 75 1013.7
20260901180835 30 33 4.8 14.5 0.00 0.00 0.00 75 1014.0
20260901175803 30 80 3.2 16.1 0.00 0.00 0.00 76 1014.0
20260901174802 31 53 4.8 16.1 0.00 0.00 0.00 74 1014.4
20260901173801 32 45 3.2 9.7 0.00 0.00 0.00 72 1014.4
20260901172801 31 68 3.2 8.0 0.00 0.00 0.00 73 1014.4
20260901171800 30 36 3.2 6.4 0.00 0.00 0.00 77 1014.4
20260901170759 29 25 1.6 6.4 0.00 0.00 0.00 82 1014.7
20260901165758 30 319 1.6 9.7 0.00 0.00 0.00 80 1014.7